Wind_Speed
15 13 11 12 13 12 15 11 15 18 15 16 16 15 20 16 15 18 19 24 22 19 18 18 21 25 26 22 22 20 19 17 15 19 24 20 20 22 23 25 27 28 29
12 13 8 9 8 8 12 8 11 14 16 17 15 16 18 20 19 19 25 24 24 23 23 24 25 27 24 22 20 19 19 19 19 21 20 20 23 26 27 29 30 33 35
9 9 6 6 4 4 5 8 1 16 18 17 21 21 18 16 14 14 22 21 22 23 25 26 25 24 21 21 22 21 21 20 19 20 21 23 24 27 30 31 33 37 39
8 9 7 6 4 3 2 5 5 5 4 21 20 17 21 23 19 18 16 20 23 25 25 24 19 17 21 22 24 22 22 21 22 23 26 24 24 26 28 31 30 37 39
9 9 9 7 5 5 3 3 4 3 4 5 18 21 24 21 23 22 21 18 15 16 15 14 14 18 19 21 22 23 24 26 26 26 24 23 24 27 32 31 33 39 37
12 10 8 8 7 6 4 4 5 4 2 3 7 11 12 14 12 11 12 13 15 16 15 17 18 20 20 23 24 25 25 28 26 26 25 27 29 32 36 36 37 38 40
14 11 13 10 8 6 7 7 5 4 3 6 6 7 8 9 11 13 13 15 16 16 19 20 19 20 22 23 24 25 25 25 26 28 30 30 29 36 40 43 44 42 42
12 15 15 13 10 8 6 6 8 8 8 8 9 9 9 9 10 12 14 15 17 19 18 18 18 19 20 21 22 24 24 26 28 30 33 37 38 43 44 43 46 45 45
14 16 17 16 16 13 12 8 7 7 7 8 9 10 11 12 14 15 16 17 15 16 15 16 17 18 20 22 25 26 27 30 33 38 38 40 43 40 43 46 47 45 44
18 15 17 18 18 15 17 15 14 12 11 11 10 10 11 12 13 13 15 15 16 16 17 19 22 23 24 26 29 31 33 39 42 46 49 34 38 42 43 48 43 46 44
19 17 18 18 17 14 16 19 18 17 15 14 14 14 15 17 18 17 20 20 22 20 22 26 28 28 30 34 32 34 36 50 33 38 50 48 46 50 48 46 41 43 50
23 22 21 17 13 11 13 15 18 18 19 20 19 20 22 22 22 24 25 26 27 24 18 12 16 31 36 28 32 45 53 29 29 27 35 40 47 44 39 45 46 50 57
30 27 25 21 17 15 16 16 17 20 22 23 23 26 25 24 21 20 22 14 13 14 16 20 22 19 23 27 27 31 45 34 32 32 31 35 40 42 43 48 50 54 58
29 31 26 24 22 20 19 19 20 21 21 23 24 25 25 24 21 19 16 15 17 18 18 21 24 25 29 29 26 27 28 33 32 35 35 37 41 41 44 47 52 56 58
29 29 26 26 24 21 21 20 20 18 22 27 28 28 26 24 25 25 25 22 21 23 19 22 24 26 28 29 30 31 32 33 36 38 38 41 42 44 48 52 56 58 58
31 30 30 26 29 24 27 26 26 24 22 23 25 29 28 27 26 24 25 24 27 24 22 23 25 28 30 31 31 32 35 37 40 41 44 46 46 50 51 52 54 55 56
38 35 33 31 32 34 31 28 24 22 23 24 23 24 25 24 23 21 20 21 24 26 27 28 31 32 32 34 35 37 39 41 42 44 46 48 51 51 52 52 53 54 56
38 34 32 26 24 28 29 30 26 24 24 27 25 26 27 24 24 24 24 26 27 29 32 33 35 36 37 36 36 37 39 42 45 47 49 51 51 52 53 53 54 55 57
35 33 37 33 33 29 27 24 27 27 25 25 26 24 27 28 28 27 27 28 30 32 34 36 38 39 39 39 39 41 43 45 47 49 50 52 53 54 55 56 58 58 59
30 32 30 30 22 29 27 27 27 25 24 26 26 25 25 27 28 30 31 32 34 36 37 38 41 42 42 42 43 45 46 48 50 51 53 55 56 57 59 60 62 65 70
31 32 32 33 28 27 28 27 29 29 30 27 27 27 28 29 30 32 32 32 33 35 37 39 42 44 46 47 48 50 51 53 54 56 58 60 61 62 64 66 70 74 77
30 31 32 32 31 29 29 28 29 31 30 28 28 30 33 33 33 35 36 38 40 42 43 45 47 47 49 50 52 54 56 58 60 62 63 65 68 70 72 73 77 82 84
36 35 38 34 33 34 32 33 32 33 30 30 32 34 36 37 38 38 42 45 43 45 47 48 51 54 55 57 58 61 63 63 65 68 67 69 71 74 73 75 84 84 83
42 38 40 43 41 41 38 35 36 36 37 37 41 42 43 42 43 45 46 43 49 49 49 52 52 52 53 51 55 59 61 65 65 68 71 75 76 79 84 86 83 85 87
31 31 31 43 46 44 40 40 40 41 39 45 41 44 42 42 46 50 50 54 52 52 53 52 52 55 55 55 62 64 68 70 72 75 78 80 81 82 83 84 85 86 88
29 31 44 46 46 45 45 43 43 46 42 43 45 43 44 48 52 55 55 56 57 59 56 62 62 69 70 65 68 70 71 73 75 76 77 77 79 82 84 86 88 90 92
Wind_Direction
305 280 271 291 312 314 326 301 241 218 215 237 234 216 209 202 200 200 194 202 205 206 216 228 225 230 230 234 233 227 215 208 207 239 242 239 242 249 256 259 263 267 272
310 276 278 292 314 322 342 334 210 207 201 213 223 221 228 218 204 208 204 210 216 216 223 234 235 242 241 237 220 205 206 213 224 240 248 250 252 254 258 261 266 270 273
302 274 275 292 290 308 341 329 141 211 205 209 211 206 217 214 230 228 215 215 231 235 241 244 245 241 231 218 203 210 219 225 236 248 251 254 255 259 260 265 268 271 276
290 281 270 265 275 286 247 3 60 14 217 201 207 224 221 232 241 228 217 223 229 239 248 250 236 216 200 203 215 224 233 240 244 248 248 252 253 256 258 261 270 276 276
271 282 260 260 243 229 238 205 179 135 21 84 204 207 214 225 227 237 238 224 223 211 212 208 209 203 212 221 233 239 244 251 251 251 253 258 260 261 265 263 262 271 279
264 267 265 258 246 213 209 224 201 220 164 122 135 160 170 162 166 190 190 195 219 222 218 221 224 228 234 241 244 247 248 251 256 262 262 262 269 268 270 274 272 274 277
263 261 259 253 255 238 219 212 201 194 186 192 198 206 202 203 194 204 213 221 226 234 232 234 236 240 242 245 249 250 252 258 263 267 273 274 279 280 279 277 277 279 281
252 272 260 252 235 238 243 228 220 212 200 193 200 207 214 224 225 228 228 227 231 237 243 244 242 245 252 256 261 265 266 271 271 276 274 275 277 271 278 274 277 277 279
250 256 265 253 244 245 249 254 252 247 233 220 213 210 207 208 214 221 229 233 237 242 243 249 247 250 253 256 258 261 261 263 263 267 265 272 273 282 279 286 279 274 273
245 250 255 255 250 254 259 258 258 255 251 250 248 243 241 245 246 248 252 252 250 254 256 255 249 250 257 262 265 264 270 271 270 270 268 266 274 280 282 279 280 269 290
233 242 255 254 248 255 259 256 251 248 251 255 257 257 253 254 257 261 260 253 247 249 259 257 254 255 259 269 272 272 284 269 281 275 279 268 271 277 275 281 281 277 296
233 240 249 246 252 251 255 250 252 252 249 255 259 261 267 272 273 276 268 256 264 238 250 256 274 262 254 271 295 266 264 271 273 274 270 268 267 273 281 275 297 294 294
242 237 235 240 246 251 264 262 252 248 251 253 252 260 260 268 278 260 247 232 245 246 261 270 268 264 274 267 284 273 266 272 280 274 271 271 273 275 280 286 284 289 289
238 238 234 235 242 253 270 259 246 251 256 257 257 259 267 275 280 284 269 239 251 258 260 272 277 272 269 273 271 275 272 273 283 283 285 283 284 284 285 286 287 286 287
230 238 242 248 250 256 266 268 255 260 254 254 256 257 259 264 275 275 273 275 263 257 264 274 280 285 287 289 292 292 290 294 292 290 289 289 288 287 289 286 286 285 286
227 234 239 253 248 256 259 259 252 265 265 262 260 261 261 266 270 267 269 271 272 278 274 278 278 281 284 288 292 294 293 294 291 288 286 287 285 283 282 283 284 283 284
234 236 244 253 246 255 251 258 261 262 269 262 263 264 263 264 265 267 268 267 268 273 273 276 276 276 281 284 286 288 288 286 285 283 282 282 280 282 284 286 286 287 288
233 244 244 249 245 247 251 269 269 263 266 263 266 259 261 261 262 263 265 268 270 271 274 276 279 280 280 281 282 282 283 283 282 280 280 281 284 286 287 287 288 289 290
246 247 245 243 246 250 258 260 266 268 266 264 264 263 262 263 267 268 270 272 274 276 278 279 278 279 281 281 280 280 281 280 279 280 283 286 288 288 289 292 292 292 293
234 242 249 247 246 250 257 263 269 271 272 267 265 267 269 269 268 270 271 272 273 276 280 283 284 285 286 286 286 285 285 285 284 285 288 290 291 291 292 292 291 291 292
231 244 252 249 239 246 253 255 264 271 273 270 270 271 272 272 272 273 276 279 283 287 290 291 292 292 291 291 290 290 290 289 289 289 290 291 292 292 291 292 295 296 296
224 240 248 240 237 242 248 255 262 270 268 267 277 280 277 274 276 278 281 284 288 292 295 296 296 295 293 293 292 291 290 290 289 289 290 290 292 293 292 292 294 296 296
234 229 234 241 241 238 244 254 260 263 263 266 270 276 280 280 280 280 286 286 286 292 294 297 295 291 289 290 291 291 290 290 293 293 291 291 292 291 289 290 294 295 294
234 238 238 241 242 242 242 248 253 258 264 269 271 276 280 282 284 285 284 282 291 292 292 300 294 291 291 287 290 293 292 291 288 285 287 288 288 288 291 295 295 294 294
231 239 252 254 242 243 251 257 256 261 268 272 271 272 278 277 282 285 284 290 292 293 294 297 285 282 288 285 288 291 292 292 291 289 291 292 293 294 294 294 294 294 295
252 251 249 253 256 261 268 262 258 257 261 285 274 270 270 278 286 284 284 288 290 292 291 287 286 285 289 289 290 291 291 291 291 292 292 292 292 293 293 294 294 295 294
Height
5721 5719 5719 5718 5716 5714 5710 5707 5708 5711 5715 5717 5719 5722 5723 5725 5728 5732 5736 5740 5743 5748 5751 5753 5757 5759 5760 5762 5766 5768 5771 5772 5775 5778 5779 5781 5782 5782 5783 5784 5785 5785 5784
5717 5716 5716 5716 5714 5713 5710 5707 5707 5709 5712 5714 5717 5720 5721 5724 5728 5731 5734 5738 5742 5746 5748 5751 5754 5757 5756 5759 5761 5765 5768 5770 5772 5775 5776 5777 5778 5777 5778 5779 5779 5778 5777
5714 5714 5715 5714 5713 5713 5711 5708 5707 5708 5709 5711 5714 5717 5718 5721 5725 5729 5732 5735 5739 5743 5747 5749 5751 5752 5753 5757 5759 5763 5765 5766 5770 5771 5772 5772 5772 5771 5773 5773 5771 5771 5769
5712 5712 5713 5712 5712 5711 5711 5710 5709 5709 5708 5709 5711 5715 5719 5721 5723 5726 5729 5733 5737 5741 5742 5745 5746 5747 5751 5755 5758 5758 5762 5765 5766 5766 5766 5767 5766 5766 5766 5764 5763 5763 5761
5710 5710 5711 5710 5710 5710 5710 5710 5710 5710 5709 5707 5710 5714 5717 5719 5721 5725 5727 5731 5735 5738 5741 5742 5745 5747 5750 5752 5755 5758 5757 5760 5760 5762 5760 5760 5760 5760 5759 5759 5758 5756 5753
5707 5708 5709 5709 5709 5709 5709 5710 5710 5711 5710 5710 5712 5714 5717 5719 5721 5724 5727 5730 5734 5738 5739 5743 5745 5747 5749 5752 5752 5752 5752 5753 5756 5756 5755 5754 5753 5753 5751 5750 5750 5747 5746
5705 5707 5706 5707 5708 5708 5708 5709 5710 5711 5712 5713 5714 5715 5716 5718 5720 5724 5727 5731 5733 5736 5739 5740 5741 5743 5746 5746 5746 5747 5748 5748 5749 5748 5749 5748 5747 5747 5746 5743 5740 5737 5735
5703 5705 5704 5705 5706 5706 5707 5708 5709 5710 5711 5712 5713 5715 5716 5717 5720 5724 5727 5728 5729 5733 5735 5737 5737 5739 5741 5742 5742 5744 5744 5743 5743 5742 5741 5740 5739 5738 5738 5733 5731 5727 5724
5700 5702 5702 5703 5703 5704 5705 5706 5706 5708 5709 5711 5713 5714 5715 5716 5718 5721 5724 5726 5728 5730 5731 5733 5733 5733 5735 5735 5734 5735 5736 5735 5735 5735 5732 5731 5731 5729 5727 5723 5720 5714 5713
5696 5698 5700 5700 5701 5702 5703 5705 5705 5705 5706 5709 5710 5712 5713 5715 5716 5719 5721 5722 5724 5725 5727 5727 5728 5728 5728 5727 5726 5727 5726 5726 5724 5723 5722 5719 5720 5719 5717 5714 5706 5704 5701
5692 5694 5696 5697 5697 5698 5700 5701 5703 5703 5704 5706 5707 5709 5710 5711 5712 5715 5716 5717 5718 5719 5720 5720 5720 5720 5719 5720 5719 5719 5717 5715 5715 5713 5709 5710 5709 5708 5705 5702 5698 5693 5690
5689 5690 5692 5694 5694 5694 5696 5697 5698 5700 5702 5702 5703 5704 5705 5706 5707 5708 5708 5708 5710 5712 5713 5711 5710 5710 5711 5711 5708 5707 5706 5706 5705 5703 5700 5699 5700 5698 5696 5693 5685 5683 5681
5685 5686 5687 5689 5690 5691 5693 5694 5695 5696 5697 5698 5699 5698 5700 5701 5701 5701 5701 5702 5703 5704 5705 5704 5703 5702 5701 5701 5701 5697 5696 5699 5698 5697 5694 5693 5692 5690 5687 5682 5679 5675 5671
5678 5681 5683 5684 5685 5686 5687 5689 5691 5691 5692 5693 5694 5695 5694 5694 5695 5695 5696 5695 5696 5696 5697 5697 5697 5695 5694 5694 5693 5693 5692 5691 5688 5687 5685 5683 5682 5679 5675 5671 5667 5663 5657
5671 5673 5678 5679 5679 5680 5681 5683 5685 5685 5685 5686 5687 5687 5688 5689 5688 5689 5689 5689 5690 5690 5690 5691 5690 5689 5688 5687 5685 5684 5682 5679 5678 5675 5674 5672 5668 5665 5661 5657 5653 5647 5642
5665 5667 5671 5673 5674 5675 5675 5677 5678 5678 5677 5678 5678 5679 5680 5681 5681 5681 5681 5682 5682 5682 5683 5683 5682 5682 5681 5678 5676 5673 5670 5668 5666 5664 5661 5659 5656 5652 5648 5643 5637 5632 5626
5657 5660 5663 5668 5669 5669 5669 5670 5672 5670 5671 5671 5671 5672 5672 5673 5673 5673 5673 5674 5675 5674 5674 5674 5673 5672 5670 5668 5665 5663 5660 5658 5655 5652 5649 5646 5642 5638 5633 5627 5622 5616 5610
5648 5653 5657 5658 5661 5664 5664 5664 5663 5663 5663 5664 5664 5664 5665 5666 5666 5666 5665 5666 5666 5666 5665 5664 5662 5660 5659 5657 5655 5652 5649 5646 5642 5639 5636 5632 5627 5621 5615 5610 5604 5598 5592
5636 5641 5645 5648 5652 5652 5653 5655 5656 5655 5655 5655 5656 5656 5656 5657 5657 5657 5657 5657 5656 5655 5654 5653 5651 5649 5647 5644 5642 5638 5635 5631 5627 5624 5619 5614 5608 5603 5597 5592 5586 5580 5574
5627 5632 5635 5638 5640 5642 5644 5645 5646 5647 5647 5647 5646 5647 5647 5647 5647 5647 5647 5646 5645 5644 5643 5641 5638 5636 5633 5630 5627 5624 5620 5616 5612 5607 5602 5596 5591 5585 5580 5574 5568 5562 5556
5618 5622 5626 5629 5631 5633 5635 5637 5638 5638 5639 5638 5638 5638 5637 5637 5637 5637 5636 5635 5634 5632 5630 5628 5625 5622 5619 5615 5612 5608 5604 5600 5596 5591 5586 5581 5576 5570 5564 5557 5551 5545 5538
5607 5611 5616 5620 5622 5624 5627 5628 5629 5629 5629 5629 5629 5628 5628 5628 5627 5627 5626 5624 5622 5620 5617 5614 5610 5607 5604 5600 5597 5593 5589 5585 5580 5574 5569 5563 5558 5552 5546 5539 5531 5524 5516
5598 5601 5606 5610 5612 5614 5616 5617 5618 5619 5619 5619 5619 5619 5618 5618 5617 5616 5614 5613 5611 5608 5605 5601 5597 5593 5589 5585 5581 5577 5572 5567 5562 5557 5551 5545 5539 5532 5525 5518 5510 5502 5493
5587 5591 5596 5598 5600 5603 5604 5606 5607 5607 5608 5607 5607 5606 5606 5605 5604 5603 5601 5599 5597 5593 5589 5585 5580 5576 5572 5568 5564 5560 5554 5549 5543 5537 5531 5525 5518 5511 5504 5496 5487 5479 5470
5577 5582 5585 5586 5589 5592 5593 5595 5595 5595 5595 5595 5594 5594 5593 5591 5590 5588 5586 5584 5580 5576 5573 5570 5566 5560 5557 5552 5546 5541 5536 5530 5523 5517 5510 5503 5496 5489 5481 5473 5464 5455 5446
5568 5572 5575 5577 5578 5580 5581 5580 5580 5580 5581 5581 5581 5580 5579 5577 5576 5574 5571 5568 5564 5560 5557 5553 5549 5544 5540 5534 5528 5522 5516 5510 5504 5497 5490 5482 5475 5467 5458 5450 5441 5431 5422